This demonstration page uses our WeatherBlox Daily Observations layout. Learn more.

Left ArrowRight Arrow

38.89511, -77.03637

Hourly Observations for March 24, 2021

Temp ( °F °C ) Dew Point ( °F °C ) Humidity (%) Winds ( mph kmh ) Pressure ( in mb ) Visibility ( mi km ) Precip ( " mm )
12:41 am 00:41 Cloudy 57 13.9 51 10.6 81 81 E 6 9 30.15 1021 10 16.0934 0 0
12:50 am 00:50 Cloudy 57 14 52 11 82 82 ESE 8 13 30.16 1021 10 16.0934 0 0
12:52 am 00:52 Cloudy 57 13.9 51 10.6 81 81 ESE 9 15 30.15 1021 10 16.0934 0 0
1:52 am 01:52 Cloudy 56 13.3 52 11.1 87 87 E 7 11 30.12 1020 10 16.0934 0 0
2:07 am 02:07 Cloudy 56 13.3 52 11.1 87 87 E 8 13 30.13 1020 10 16.0934 0 0
2:52 am 02:52 Cloudy with Light Rain 55 12.8 52 11.1 90 90 E 6 9 30.12 1020 7 11.26538 0.001 0.001
3:26 am 03:26 Cloudy with Drizzle 55 12.8 52 11.1 90 90 NE 6 9 30.11 1020 6 9.65604 0.001 0.001
3:52 am 03:52 Cloudy with Light Rain 54 12.2 52 11.1 93 93 ENE 8 13 30.1 1019 5 8.0467 0.01 0.254
4:52 am 04:52 Cloudy with Light Rain 54 12.2 52 11.1 93 93 ENE 9 15 30.09 1019 10 16.0934 0.001 0.001
5:52 am 05:52 Cloudy with Drizzle 54 12.2 52 11.1 93 93 ENE 6 9 30.08 1019 5 8.0467 0.03 0.762
6:52 am 06:52 Cloudy with Mist and Fog 54 12.2 52 11.1 93 93 ENE 3 6 30.08 1019 5 8.0467 0.001 0.001
7:09 am 07:09 Cloudy with Rain 54 12.2 53 11.7 97 97 NE 5 7 30.07 1018 2 3.21868 0.03 0.762
7:26 am 07:26 Cloudy with Light Rain 54 12.2 53 11.7 97 97 N 3 6 30.07 1018 3 4.82802 0.08 2.032
7:52 am 07:52 Cloudy with Light Rain 54 12.2 53 11.7 97 97 N 5 7 30.08 1019 5 8.0467 0.1 2.54
8:52 am 08:52 Cloudy with Light Rain 55 12.8 53 11.7 93 93 NE 5 7 30.07 1018 6 9.65604 0.02 0.508
9:52 am 09:52 Cloudy with Light Rain 55 12.8 53 11.7 93 93 NE 8 13 30.06 1018 5 8.0467 0.02 0.508
10:05 am 10:05 Cloudy with Heavy Rain 55 12.8 53 11.7 93 93 N 6 9 30.07 1018 2 3.21868 0.11 2.794
10:06 am 10:06 Cloudy with Heavy Rain 55 12.8 53 11.7 93 93 N 6 9 30.07 1018 1 1.60934 0.12 3.048
10:09 am 10:09 Cloudy with Heavy Rain 55 12.8 53 11.7 93 93 N 7 11 30.06 1018 1 1.60934 0.16 4.064
10:26 am 10:26 Cloudy with Heavy Rain 55 12.8 54 12.2 96 96 N 5 7 30.07 1018 0.75 1.207005 0.35 8.89
10:52 am 10:52 Cloudy with Heavy Rain 55 12.8 54 12.2 96 96 NNE 5 7 30.06 1018 1.25 2.011675 0.95 24.13
11:00 am 11:00 Cloudy with Light Rain 55 12.8 54 12.2 96 96 NNE 5 7 30.07 1018 2 3.21868 0.04 1.016
11:11 am 11:11 Cloudy with Light Rain 55 12.8 54 12.2 96 96 N 6 9 30.06 1018 5 8.0467 0.06 1.524
11:18 am 11:18 Cloudy with Light Rain 55 12.8 54 12.2 96 96 NNW 6 9 30.07 1018 5 8.0467 0.06 1.524
11:32 am 11:32 Cloudy with Light Rain 56 13.3 54 12.2 93 93 NNE 5 7 30.06 1018 2 3.21868 0.07 1.778
11:52 am 11:52 Cloudy with Light Rain 56 13.3 55 12.8 97 97 N 5 7 30.06 1018 2 3.21868 0.08 2.032
12:00 pm 12:00 Cloudy with Light Rain 56 13.3 55 12.8 97 97 NNW 7 11 30.05 1018 2.5 4.02335 0.01 0.254
12:31 pm 12:31 Cloudy with Heavy Rain 56 13.3 55 12.8 97 97 N 8 13 30.05 1018 1 1.60934 0.17 4.318
12:45 pm 12:45 Cloudy with Light Rain 56 13.3 55 12.8 97 97 N 6 9 30.04 1017 2.5 4.02335 0.27 6.858
12:48 pm 12:48 Cloudy with Light Rain 55 13 55 13 100 100 N 6 9 30.04 1017 3 4.82802 0.27 6.858
12:52 pm 12:52 Cloudy with Light Rain 56 13.3 55 12.8 97 97 NNE 5 7 30.04 1017 2.5 4.02335 0.28 7.112
1:06 pm 13:06 Cloudy with Light Rain 57 13.9 55 12.8 93 93 NNE 5 7 30.03 1017 3 4.82802 0.01 0.254
1:16 pm 13:16 Cloudy with Light Rain 57 13.9 55 12.8 93 93 Calm 30.04 1017 2.5 4.02335 0.02 0.508
1:47 pm 13:47 Cloudy with Light Rain 55 13 55 13 100 100 NE 5 7 30.02 1017 3 4.82802 0.08 2.032
2:52 pm 14:52 Cloudy with Light Rain 58 14.4 56 13.3 93 93 NNE 3 6 30 1016 5 8.0467 0.02 0.508
3:07 pm 15:07 Cloudy with Light Rain 58 14.4 57 13.9 97 97 NNE 3 6 29.99 1016 7 11.26538 0.01 0.254
3:31 pm 15:31 Cloudy with Light Rain 58 14.4 56 13.3 93 93 Calm 29.99 1016 6 9.65604 0.02 0.508
3:34 pm 15:34 Cloudy with Light Rain 58 14.4 56 13.3 93 93 NE 3 6 29.99 1016 5 8.0467 0.02 0.508
3:37 pm 15:37 Cloudy with Light Rain 58 14.4 56 13.3 93 93 NE 3 6 29.99 1016 5 8.0467 0.02 0.508
3:47 pm 15:47 Cloudy with Light Rain 57 14 55 13 94 94 NE 6 9 29.98 1015 5 8.0467 0.04 1.016
3:52 pm 15:52 Cloudy with Light Rain 58 14.4 56 13.3 93 93 ENE 7 11 29.97 1015 5 8.0467 0.04 1.016
4:14 pm 16:14 Cloudy with Light Rain 58 14.4 57 13.9 97 97 N 7 11 29.96 1015 5 8.0467 0.03 0.762
4:52 pm 16:52 Cloudy with Light Rain 59 15 57 13.9 93 93 N 7 11 29.96 1014 10 16.0934 0.05 1.27
5:52 pm 17:52 Cloudy 60 15.6 57 13.9 90 90 N 6 9 29.95 1014 10 16.0934 0.01 0.254
6:52 pm 18:52 Cloudy 60 15.6 57 13.9 90 90 N 6 9 29.96 1014 10 16.0934 0 0
7:52 pm 19:52 Cloudy 59 15 57 13.9 93 93 NNE 6 9 29.96 1014 9 14.48406 0 0
8:52 pm 20:52 Cloudy with Drizzle 59 15 57 13.9 93 93 Calm 29.98 1015 6 9.65604 0.001 0.001
9:52 pm 21:52 Cloudy 59 15 57 13.9 93 93 SW 3 6 30.01 1016 7 11.26538 0.001 0.001
10:52 pm 22:52 Cloudy with Drizzle 59 15 57 13.9 93 93 SW 5 7 30.02 1017 2 3.21868 0.001 0.001
11:00 pm 23:00 Cloudy with Drizzle 58 14.4 57 13.9 97 97 SW 6 9 30.02 1017 1.5 2.41401 0.001 0.001
11:31 pm 23:31 Cloudy with Drizzle 58 14.4 57 13.9 97 97 SW 6 9 30.03 1017 2 3.21868 0.001 0.001
11:52 pm 23:52 Cloudy 58 14.4 56 13.3 93 93 WSW 6 9 30.03 1017 8 12.87472 0.001 0.001

Powered by AerisWeather